Flag for Luxembourg Weather past 2 weeks in Differdange, Luxembourg

Now
50 °F

Clear.


Feels Like: 49 °F
Forecast: 46 / 58 °F
Wind: 3 mph from South

Location: Luxembourg Airport

Current Time: Aug 22, 2014 at 7:55:52 AM

Latest Report: Aug 22, 2014 at 7:20 AM


Visibility: 10 mi

Pressure: 29.98 "Hg

Humidity: 82%

Dew point: 45 °F

Location of DifferdangeLocation

Historic Weather in Differdange — Graph

°F

Differdange temperature yesterday

Maximum temperature yesterday: 64 °F (at 4:20 PM)
Minimum temperature yesterday: 45 °F (at 4:50 AM)
Average temperature yesterday: 54 °F

Past Weeks' High & Low Weather Summary

 TemperatureHumidityPressure
High75 °F (Aug 7, 4:50 PM)100% (Aug 7, 6:50 AM)30.15 "Hg (Aug 7, 6:50 AM)
Low45 °F (Aug 20, 3:20 AM)39% (Aug 21, 5:50 PM)29.68 "Hg (Aug 10, 6:50 PM)
Average59 °F79%29.93 "Hg
* Reported Aug 7 6:20 AM — Aug 22 6:20 AM, Differdange, Weather by CustomWeather, © 2014

Note: Actual official high and low records may vary slightly from our data, if they occured in-between our weather recording intervals... More about our weather records

Advertising

Differdange weather history for previous 24 hours

 ConditionsComfort  
Time TempWeatherWind HumidityBarometerVisibility
6:20 AM
Aug 22
48 °FClear.3 mph87%29.98 "Hg10 mi
5:50 AM50 °FClear.No wind82%29.98 "Hg10 mi
5:20 AM50 °FClear.No wind82%29.98 "Hg10 mi
4:50 AM50 °FClear.No wind82%29.98 "Hg10 mi
4:20 AM48 °FCool.No wind82%29.98 "HgN/A
3:50 AM48 °FClear.2 mph82%29.98 "Hg10 mi
3:20 AM48 °FClear.3 mph82%30.01 "Hg10 mi
2:50 AM48 °FClear.2 mph82%30.01 "Hg10 mi
2:20 AM50 °FCool.2 mph76%30.01 "HgN/A
1:50 AM48 °FClear.3 mph87%30.01 "Hg10 mi
1:20 AM48 °FClear.2 mph87%30.01 "Hg10 mi
12:50 AM50 °FClear.3 mph82%30.01 "Hg10 mi
12:20 AM52 °FClear.5 mph72%30.01 "Hg10 mi
11:50 PM
Aug 21
52 °FPassing clouds.5 mph77%30.04 "HgN/A
11:20 PM52 °FClear.5 mph72%30.04 "Hg10 mi
10:50 PM52 °FPassing clouds.5 mph77%30.04 "HgN/A
10:20 PM54 °FClear.3 mph72%30.04 "Hg10 mi
9:50 PM54 °FClear.3 mph72%30.04 "Hg10 mi
9:20 PM55 °FSunny.3 mph67%30.04 "Hg10 mi
8:50 PM57 °FSunny.5 mph63%30.01 "Hg10 mi
8:20 PM59 °FSunny.3 mph55%30.01 "Hg10 mi
7:50 PM61 °FPassing clouds.5 mph48%30.01 "HgN/A
7:20 PM63 °FPassing clouds.8 mph45%30.01 "HgN/A
6:50 PM61 °FPassing clouds.6 mph48%30.01 "HgN/A
6:20 PM63 °FPassing clouds.7 mph42%30.01 "HgN/A
5:50 PM63 °FPassing clouds.6 mph39%30.04 "HgN/A
5:20 PM63 °FSunny.6 mph45%30.04 "Hg10 mi
4:50 PM64 °FPassing clouds.6 mph40%30.04 "HgN/A
4:20 PM64 °FPassing clouds.7 mph40%30.04 "HgN/A
3:50 PM61 °FPassing clouds.5 mph48%30.04 "HgN/A
3:20 PM61 °FPassing clouds.7 mph48%30.04 "HgN/A
2:50 PM61 °FPassing clouds.9 mph52%30.07 "HgN/A
2:20 PM61 °FPassing clouds.9 mph48%30.07 "HgN/A
1:50 PM63 °FPassing clouds.9 mph49%30.07 "HgN/A
1:20 PM61 °FPassing clouds.10 mph52%30.07 "HgN/A
12:50 PM59 °FPassing clouds.9 mph51%30.07 "HgN/A
12:20 PM59 °FPassing clouds.9 mph55%30.07 "HgN/A
11:50 AM57 °FPassing clouds.8 mph59%30.07 "HgN/A
11:20 AM55 °FPassing clouds.8 mph72%30.07 "HgN/A
10:50 AM57 °FPassing clouds.7 mph72%30.07 "HgN/A
10:20 AM55 °FPassing clouds.6 mph77%30.07 "HgN/A
9:50 AM54 °FPassing clouds.5 mph82%30.07 "HgN/A
9:20 AM52 °FSunny.3 mph88%30.07 "Hg10 mi
8:50 AM52 °FSunny.2 mph82%30.07 "Hg10 mi
8:20 AM48 °FPassing clouds.1 mph94%30.07 "HgN/A
7:50 AM46 °FScattered clouds.5 mph93%30.07 "HgN/A
7:20 AM46 °FPassing clouds.5 mph93%30.07 "HgN/A
Weather by CustomWeather, © 2014

See weather overviewHow to use our weather pages